AWQ405 WIII-WMKL

Flight info

Callsign AWQ405
Flight time N/A
Altitude 40000
Route DOLTA A585 PLB G579 VJB Y342 AROSO DCT VKL DCT TEPUS A457 VPG W525 KAPKO KAPKO1E
Aircraft A359/H-SDE2E3GHIJ3J4J5LM1ORWXY/LB1D1

Departure

Time 2026-04-27 12:58
Airport Soekarno-Hatta International Airport (WIII)

Arrival

Time N/A
Airport Langkawi International Airport (WMKL)
Time Latitude Longitude Altitude Speed Heading
2026-04-27 12:49 -6.12751 106.65961 43 ft 0 kts 176°
2026-04-27 12:50 -6.12739 106.65960 43 ft 3 kts 163°
2026-04-27 12:50 -6.12724 106.65954 41 ft 0 kts 146°
2026-04-27 12:52 -6.12741 106.65998 43 ft 21 kts 107°
2026-04-27 12:52 -6.12854 106.66107 43 ft 23 kts 156°
2026-04-27 12:52 -6.13004 106.66171 44 ft 24 kts 164°
2026-04-27 12:53 -6.13175 106.66327 43 ft 15 kts 68°
2026-04-27 12:53 -6.13125 106.66451 44 ft 23 kts 68°
2026-04-27 12:53 -6.13056 106.66623 44 ft 30 kts 68°
2026-04-27 12:54 -6.12970 106.66836 43 ft 36 kts 68°
2026-04-27 12:54 -6.12871 106.67080 42 ft 39 kts 68°
2026-04-27 12:54 -6.12786 106.67293 42 ft 21 kts 75°
2026-04-27 12:54 -6.12803 106.67359 42 ft 0 kts 142°
2026-04-27 12:55 -6.12805 106.67359 42 ft 1 kts 150°
2026-04-27 12:55 -6.12832 106.67378 42 ft 9 kts 141°
2026-04-27 12:55 -6.12918 106.67419 42 ft 18 kts 162°
2026-04-27 12:56 -6.13017 106.67408 42 ft 14 kts 217°
2026-04-27 12:56 -6.13053 106.67354 42 ft 0 kts 248°
2026-04-27 12:57 -6.13124 106.67175 42 ft 68 kts 248°
2026-04-27 12:57 -6.13424 106.66418 49 ft 163 kts 249°
2026-04-27 12:57 -6.13930 106.65154 458 ft 214 kts 249°
2026-04-27 12:58 -6.14517 106.63694 1523 ft 240 kts 248°
2026-04-27 12:58 -6.15206 106.61974 2165 ft 289 kts 248°
2026-04-27 12:58 -6.15981 106.60042 2597 ft 303 kts 248°
2026-04-27 12:58 -6.16761 106.58090 3451 ft 295 kts 247°
2026-04-27 12:59 -6.17509 106.56212 4430 ft 285 kts 247°
2026-04-27 12:59 -6.18238 106.54385 5244 ft 280 kts 247°
2026-04-27 12:59 -6.18966 106.52562 5899 ft 282 kts 247°
2026-04-27 12:59 -6.19699 106.50726 6482 ft 285 kts 247°
2026-04-27 13:00 -6.20440 106.48868 7063 ft 287 kts 247°
2026-04-27 13:00 -6.21186 106.46996 7649 ft 289 kts 247°
2026-04-27 13:00 -6.21937 106.45111 8222 ft 292 kts 247°
2026-04-27 13:00 -6.22685 106.43206 8779 ft 295 kts 249°
2026-04-27 13:01 -6.22828 106.41152 9302 ft 300 kts 281°
2026-04-27 13:01 -6.21924 106.39281 9860 ft 302 kts 311°
2026-04-27 13:01 -6.20207 106.38074 10252 ft 309 kts 340°
2026-04-27 13:01 -6.18056 106.37804 10439 ft 320 kts
2026-04-27 13:02 -6.15798 106.38056 10644 ft 334 kts
2026-04-27 13:02 -6.13425 106.38031 10826 ft 348 kts 356°
2026-04-27 13:02 -6.10988 106.37692 11027 ft 360 kts 350°
2026-04-27 13:02 -6.08513 106.37160 11348 ft 366 kts 347°
2026-04-27 13:03 -6.06036 106.36532 11746 ft 369 kts 346°
2026-04-27 13:03 -6.03547 106.35852 12162 ft 372 kts 345°
2026-04-27 13:03 -6.01045 106.35138 12566 ft 375 kts 345°
2026-04-27 13:03 -5.98527 106.34405 12970 ft 378 kts 345°
2026-04-27 13:04 -5.96027 106.33670 13368 ft 380 kts 345°
2026-04-27 13:04 -5.93481 106.32917 13748 ft 383 kts 344°
2026-04-27 13:04 -5.90883 106.32146 14114 ft 385 kts 344°
2026-04-27 13:04 -5.88340 106.31391 14475 ft 387 kts 344°
2026-04-27 13:05 -5.85751 106.30622 14845 ft 389 kts 345°
2026-04-27 13:05 -5.83152 106.29849 15191 ft 391 kts 345°
2026-04-27 13:05 -5.80539 106.29072 15566 ft 393 kts 345°
2026-04-27 13:05 -5.77914 106.28292 15935 ft 394 kts 345°
2026-04-27 13:06 -5.75274 106.27509 16295 ft 396 kts 345°
2026-04-27 13:06 -5.72673 106.26571 16610 ft 400 kts 333°
2026-04-27 13:06 -5.70245 106.25193 16974 ft 402 kts 330°
2026-04-27 13:06 -5.67822 106.23766 17330 ft 404 kts 330°
2026-04-27 13:07 -5.65380 106.22348 17691 ft 406 kts 331°
2026-04-27 13:07 -5.62922 106.20937 18055 ft 408 kts 331°
2026-04-27 13:07 -5.60447 106.19527 18348 ft 410 kts 331°
2026-04-27 13:07 -5.57954 106.18113 18654 ft 412 kts 332°
2026-04-27 13:08 -5.55451 106.16696 18954 ft 414 kts 332°
2026-04-27 13:08 -5.52934 106.15273 19266 ft 415 kts 332°
2026-04-27 13:08 -5.50412 106.13849 19566 ft 417 kts 332°
2026-04-27 13:08 -5.47879 106.12418 19865 ft 419 kts 331°
2026-04-27 13:09 -5.45336 106.10983 20147 ft 420 kts 332°
2026-04-27 13:09 -5.42781 106.09541 20446 ft 422 kts 331°
2026-04-27 13:09 -5.40215 106.08093 20746 ft 424 kts 331°
2026-04-27 13:09 -5.37641 106.06644 21039 ft 425 kts 332°
2026-04-27 13:10 -5.35057 106.05187 21318 ft 427 kts 331°
2026-04-27 13:10 -5.32468 106.03722 21612 ft 428 kts 331°
2026-04-27 13:10 -5.29863 106.02249 21875 ft 430 kts 331°
2026-04-27 13:10 -5.27249 106.00772 22141 ft 432 kts 331°
2026-04-27 13:11 -5.24623 105.99289 22426 ft 434 kts 331°
2026-04-27 13:11 -5.21992 105.97803 22707 ft 435 kts 331°
2026-04-27 13:11 -5.19351 105.96312 22972 ft 437 kts 331°
2026-04-27 13:11 -5.16694 105.94812 23235 ft 438 kts 331°
2026-04-27 13:12 -5.14028 105.93307 23482 ft 440 kts 331°
2026-04-27 13:12 -5.11356 105.91802 23707 ft 441 kts 331°
2026-04-27 13:12 -5.08680 105.90289 23919 ft 443 kts 331°
2026-04-27 13:12 -5.06001 105.88760 24144 ft 444 kts 331°
2026-04-27 13:13 -5.03316 105.87225 24373 ft 445 kts 331°
2026-04-27 13:13 -5.00623 105.85684 24601 ft 446 kts 331°
2026-04-27 13:13 -4.97921 105.84140 24802 ft 447 kts 331°
2026-04-27 13:13 -4.95211 105.82593 25030 ft 448 kts 331°
2026-04-27 13:14 -4.92491 105.81043 25260 ft 450 kts 331°
2026-04-27 13:14 -4.89769 105.79492 25474 ft 451 kts 331°
2026-04-27 13:14 -4.87039 105.77938 25697 ft 452 kts 331°
2026-04-27 13:14 -4.84319 105.76390 25932 ft 453 kts 331°
2026-04-27 13:15 -4.81573 105.74826 26169 ft 454 kts 331°
2026-04-27 13:15 -4.78820 105.73259 26391 ft 456 kts 331°
2026-04-27 13:15 -4.76057 105.71687 26629 ft 457 kts 331°
2026-04-27 13:15 -4.73286 105.70110 26858 ft 459 kts 331°
2026-04-27 13:16 -4.70501 105.68525 27093 ft 460 kts 331°
2026-04-27 13:16 -4.67713 105.66938 27339 ft 461 kts 331°
2026-04-27 13:16 -4.64919 105.65348 27589 ft 463 kts 331°
2026-04-27 13:16 -4.62114 105.63752 27832 ft 464 kts 331°
2026-04-27 13:17 -4.59299 105.62151 28074 ft 466 kts 331°
2026-04-27 13:17 -4.56477 105.60545 28325 ft 468 kts 331°
2026-04-27 13:17 -4.53642 105.58933 28555 ft 469 kts 331°
2026-04-27 13:17 -4.50797 105.57314 28804 ft 471 kts 331°
2026-04-27 13:18 -4.47949 105.55694 29048 ft 472 kts 331°
2026-04-27 13:18 -4.45126 105.54089 29289 ft 474 kts 331°
2026-04-27 13:18 -4.42253 105.52456 29534 ft 475 kts 331°
2026-04-27 13:18 -4.39373 105.50818 29763 ft 477 kts 331°
2026-04-27 13:19 -4.36483 105.49175 30012 ft 479 kts 331°
2026-04-27 13:19 -4.33580 105.47525 30230 ft 480 kts 331°
2026-04-27 13:19 -4.30667 105.45869 30462 ft 482 kts 331°
2026-04-27 13:19 -4.27746 105.44209 30695 ft 483 kts 331°
2026-04-27 13:20 -4.24818 105.42545 30926 ft 485 kts 331°
2026-04-27 13:20 -4.21878 105.40874 31165 ft 486 kts 331°
2026-04-27 13:20 -4.18930 105.39199 31388 ft 488 kts 331°
2026-04-27 13:20 -4.15972 105.37519 31620 ft 490 kts 331°
2026-04-27 13:21 -4.13000 105.35830 31835 ft 491 kts 331°
2026-04-27 13:21 -4.11033 105.34713 31981 ft 492 kts 331°
2026-04-27 13:21 -4.08044 105.33015 32194 ft 494 kts 332°
2026-04-27 13:21 -4.05049 105.31314 32412 ft 495 kts 332°
2026-04-27 13:22 -4.02047 105.29609 32599 ft 497 kts 332°
2026-04-27 13:22 -3.99027 105.27894 32798 ft 499 kts 332°
2026-04-27 13:22 -3.96001 105.26176 32992 ft 500 kts 332°
2026-04-27 13:22 -3.92975 105.24458 33185 ft 502 kts 332°
2026-04-27 13:23 -3.89933 105.22735 33364 ft 503 kts 332°
2026-04-27 13:23 -3.86875 105.21011 33558 ft 505 kts 332°
2026-04-27 13:23 -3.83812 105.19287 33748 ft 506 kts 332°
2026-04-27 13:23 -3.80738 105.17558 33922 ft 508 kts 332°
2026-04-27 13:24 -3.77655 105.15824 34092 ft 509 kts 332°
2026-04-27 13:24 -3.74565 105.14085 34339 ft 508 kts 332°
2026-04-27 13:24 -3.71492 105.12355 34632 ft 506 kts 332°
2026-04-27 13:24 -3.68427 105.10629 34931 ft 505 kts 332°
2026-04-27 13:25 -3.65369 105.08908 35223 ft 504 kts 332°
2026-04-27 13:25 -3.62318 105.07191 35517 ft 503 kts 332°
2026-04-27 13:25 -3.59269 105.05475 35814 ft 502 kts 332°
2026-04-27 13:25 -3.56247 105.03774 36107 ft 501 kts 332°
2026-04-27 13:26 -3.53202 105.02062 36397 ft 501 kts 332°
2026-04-27 13:26 -3.50166 105.00353 36702 ft 500 kts 332°
2026-04-27 13:26 -3.47138 104.98650 36998 ft 499 kts 332°
2026-04-27 13:26 -3.44107 104.96944 37314 ft 498 kts 332°
2026-04-27 13:27 -3.41090 104.95247 37624 ft 497 kts 332°
2026-04-27 13:27 -3.38075 104.93552 37946 ft 496 kts 332°
2026-04-27 13:27 -3.35070 104.91861 38259 ft 495 kts 332°
2026-04-27 13:27 -3.32066 104.90172 38554 ft 495 kts 332°
2026-04-27 13:28 -3.29071 104.88488 38795 ft 494 kts 332°
2026-04-27 13:28 -3.26075 104.86803 39016 ft 494 kts 332°
2026-04-27 13:28 -3.23085 104.85122 39248 ft 494 kts 332°
2026-04-27 13:28 -3.20091 104.83439 39470 ft 493 kts 332°
2026-04-27 13:29 -3.17094 104.81754 39693 ft 493 kts 332°
2026-04-27 13:29 -3.14105 104.80073 39843 ft 494 kts 332°
2026-04-27 13:29 -3.08166 104.76735 39876 ft 492 kts 332°
2026-04-27 13:30 -3.02157 104.73357 39880 ft 492 kts 332°
2026-04-27 13:30 -2.96229 104.70026 39885 ft 492 kts 332°
2026-04-27 13:31 -2.90255 104.66670 39884 ft 492 kts 332°
2026-04-27 13:31 -2.83944 104.64154 39885 ft 489 kts 348°
2026-04-27 13:32 -2.77259 104.62972 39878 ft 488 kts 353°
2026-04-27 13:32 -2.70535 104.61945 39874 ft 489 kts 352°
2026-04-27 13:33 -2.63828 104.60782 39864 ft 489 kts 351°
2026-04-27 13:33 -2.57127 104.59527 39864 ft 489 kts 350°
2026-04-27 13:34 -2.50434 104.58252 39858 ft 489 kts 350°
2026-04-27 13:34 -2.43738 104.56980 39860 ft 489 kts 350°
2026-04-27 13:35 -2.37048 104.55714 39861 ft 489 kts 350°
2026-04-27 13:35 -2.30359 104.54451 39862 ft 489 kts 350°
2026-04-27 13:36 -2.23669 104.53187 39863 ft 489 kts 350°
2026-04-27 13:36 -2.16969 104.51922 39860 ft 489 kts 350°
2026-04-27 13:37 -2.10313 104.50665 39860 ft 490 kts 350°
2026-04-27 13:37 -2.03617 104.49400 39865 ft 490 kts 350°
2026-04-27 13:38 -1.96913 104.48134 39864 ft 490 kts 350°
2026-04-27 13:38 -1.90210 104.46869 39865 ft 490 kts 350°
2026-04-27 13:39 -1.83509 104.45603 39871 ft 490 kts 350°
2026-04-27 13:39 -1.76809 104.44338 39872 ft 490 kts 350°
2026-04-27 13:40 -1.70102 104.43072 39872 ft 490 kts 350°
2026-04-27 13:40 -1.63397 104.41806 39870 ft 491 kts 350°
2026-04-27 13:41 -1.56682 104.40539 39871 ft 491 kts 350°
2026-04-27 13:41 -1.49972 104.39273 39873 ft 491 kts 350°
2026-04-27 13:42 -1.43256 104.38005 39874 ft 491 kts 350°
2026-04-27 13:42 -1.36540 104.36738 39873 ft 491 kts 350°
2026-04-27 13:43 -1.29822 104.35469 39873 ft 491 kts 350°
2026-04-27 13:43 -1.23105 104.34202 39875 ft 491 kts 350°
2026-04-27 13:44 -1.16383 104.32934 39872 ft 491 kts 350°
2026-04-27 13:44 -1.09708 104.31674 39873 ft 492 kts 351°
2026-04-27 13:45 -1.02983 104.30406 39873 ft 492 kts 351°